Sussex, NJ

9:22 AM EST on December 03, 2016 (GMT -0500)
Sussex

Weather History for KFWN - January, 2014

Change the Weather History Date:

Wednesday, January 22, 2014

  Actual Average Record
Temperature  
Mean Temperature 6 °F -  
Max Temperature 12 °F 31 °F 63 °F (1959)
Min Temperature 0 °F 11 °F -25 °F (1961)
Degree Days  
Heating Degree Days 59    
Moisture  
Dew Point -9 °F    
Average Humidity 50    
Maximum Humidity 63    
Minimum Humidity 37    
Precipitation  
Precipitation 0.00 in - - ()
Sea Level Pressure  
Sea Level Pressure 29.90 in    
Wind  
Wind Speed 7 mph (NNW)    
Max Wind Speed 13 mph    
Max Gust Speed 23 mph    
Visibility 10 miles    
Events      
Averages and records for this station are not official NWS values.
T = Trace of Precipitation, MM = Missing Value Source: NWS Daily Summary

Daily Weather History Graph

Daily Weather History Graph

Search for Another Location

Airport or City:

Trip Planner

Search our weather history database for the weather conditions in past years. The results will help you decide how hot, cold, wet, or windy it might be!

Date:

Astronomy

Jan. 22, 2014 Rise Set
Actual Time 7:17 AM EST 5:02 PM EST
Civil Twilight 6:47 AM EST 5:32 PM EST
Nautical Twilight 6:14 AM EST 6:06 PM EST
Astronomical Twilight 5:41 AM EST 6:39 PM EST
Moon 11:37 PM EST (1/22) 10:13 AM EST (1/22)
Length of Visible Light 10h 44m
Length of Day
9h 44m
Waning Gibbous, 65% of the Moon is Illuminated
Jan 22
Waning Gibbous
Jan 24
Last Quarter
Jan 30
New
Feb 6
First Quarter
Feb 14
Full

Hourly Weather History & Observations

Time (EST) Temp. Windchill Dew Point Humidity Pressure Visibility Wind Dir Wind Speed Gust Speed Precip Events Conditions
12:53 AM 9.0 °F -3.2 °F -4.0 °F 56% 29.86 in 10.0 mi NNW 8.1 mph - N/A   Partly Cloudy
1:53 AM 7.0 °F -5.7 °F -6.0 °F 55% 29.86 in 10.0 mi North 8.1 mph - N/A   Clear
2:53 AM 5.0 °F -9.1 °F -7.1 °F 58% 29.85 in 10.0 mi North 9.2 mph - N/A   Clear
3:53 AM 3.0 °F -8.0 °F -8.0 °F 60% 29.85 in 10.0 mi NNW 5.8 mph - N/A   Clear
4:53 AM 1.9 °F -11.8 °F -8.0 °F 63% 29.85 in 10.0 mi North 8.1 mph - N/A   Clear
5:53 AM 1.0 °F -11.7 °F -9.0 °F 63% 29.87 in 10.0 mi Variable 6.9 mph - N/A   Clear
6:53 AM -0.0 °F -14.2 °F -11.0 °F 60% 29.86 in 10.0 mi NNW 8.1 mph 18.4 mph N/A   Clear
7:53 AM -0.0 °F -11.6 °F -11.9 °F 57% 29.87 in 10.0 mi Variable 5.8 mph - N/A   Clear
8:53 AM 1.0 °F -12.9 °F -11.9 °F 55% 29.87 in 10.0 mi North 8.1 mph - N/A   Clear
9:53 AM 3.9 °F -13.0 °F -11.9 °F 48% 29.88 in 10.0 mi North 12.7 mph 18.4 mph N/A   Clear
10:53 AM 6.1 °F -6.8 °F -11.0 °F 45% 29.87 in 10.0 mi North 8.1 mph 19.6 mph N/A   Clear
11:53 AM 9.0 °F -4.2 °F -9.0 °F 44% 29.83 in 10.0 mi WNW 9.2 mph - N/A   Clear
12:53 PM 10.9 °F -2.6 °F -9.9 °F 39% 29.83 in 10.0 mi WNW 10.4 mph 20.7 mph N/A   Clear
1:53 PM 12.9 °F 2.6 °F -8.0 °F 39% 29.83 in 10.0 mi North 6.9 mph 19.6 mph N/A   Clear
2:53 PM 12.9 °F 3.8 °F -9.0 °F 37% 29.86 in 10.0 mi NNW 5.8 mph - N/A   Clear
3:53 PM 12.9 °F 3.8 °F -9.0 °F 37% 29.87 in 10.0 mi Variable 5.8 mph 23.0 mph N/A   Clear
4:53 PM 12.0 °F -0.4 °F -9.0 °F 39% 29.90 in 10.0 mi NW 9.2 mph - N/A   Clear
5:53 PM 10.0 °F -0.9 °F -9.0 °F 42% 29.92 in 10.0 mi Variable 6.9 mph - N/A   Clear
6:53 PM 9.0 °F 0.6 °F -9.0 °F 44% 29.96 in 10.0 mi NW 4.6 mph - N/A   Clear
7:53 PM 8.1 °F 1.4 °F -9.0 °F 46% 29.98 in 10.0 mi Variable 3.5 mph - N/A   Clear
8:53 PM 6.1 °F -4.3 °F -8.0 °F 53% 29.99 in 10.0 mi Variable 5.8 mph - N/A   Clear
9:53 PM 5.0 °F - -8.0 °F 55% 30.00 in 10.0 mi Calm Calm - N/A   Clear
10:53 PM 3.9 °F - -8.0 °F 58% 30.01 in 10.0 mi Calm Calm - N/A   Clear
11:53 PM 3.9 °F -3.4 °F -8.0 °F 58% 30.01 in 10.0 mi Variable 3.5 mph - N/A   Partly Cloudy